When you browse on this site, cookies collect data to enhance your experience and personalize the content and advertising you see.
Visit our Privacy Policy to learn more. By continuing to use the site, you agree to this use of cookies and data.
  • In Switzerland
  • List of Countries
  • For 7 days
  • Water Temperature
  • Satellite Maps
  • Weather Map
  • Weather Widgets
  • user-avatar
    Login

    Hourly Weather Nairobi

    Today, 21 January, Monday

    Time Temperature Precipitation Wind Pressure Humidity
    00:00 +19°C° 0.1 mm 3 mps 624 mmHg 74%
    01:00 +19°C° 0.1 mm 3 mps 624 mmHg 73%
    02:00 +18°C° 0 mm 2 mps 624 mmHg 69%
    03:00 +19°C° 0.1 mm 1 mps 624 mmHg 70%
    04:00 +19°C° 0.1 mm 1 mps 624 mmHg 71%
    05:00 +19°C° 0.1 mm 1 mps 624 mmHg 73%
    06:00 +20°C° 0.1 mm 1 mps 624 mmHg 72%
    07:00 +20°C° 0.1 mm 1 mps 625 mmHg 71%
    08:00 +21°C° 0 mm 1 mps 625 mmHg 75%
    09:00 +22°C° 0.6 mm 1 mps 625 mmHg 69%
    10:00 +23°C° 0.6 mm 1 mps 625 mmHg 63%
    11:00 +24°C° 0.6 mm 1 mps 626 mmHg 57%
    12:00 +24°C° 1.1 mm 1 mps 625 mmHg 56%
    13:00 +25°C° 1.1 mm 2 mps 625 mmHg 54%
    14:00 +27°C° 0 mm 2 mps 625 mmHg 44%
    15:00 +25°C° 0.1 mm 3 mps 624 mmHg 49%
    16:00 +24°C° 0.1 mm 3 mps 624 mmHg 54%
    17:00 +22°C° 0.1 mm 3 mps 623 mmHg 59%
    18:00 +21°C° 0.1 mm 3 mps 623 mmHg 65%
    19:00 +20°C° 0.1 mm 3 mps 623 mmHg 71%
    20:00 +19°C° 0.1 mm 3 mps 624 mmHg 78%
    21:00 +18°C° 0 mm 3 mps 624 mmHg 80%
    22:00 +17°C° 0 mm 3 mps 624 mmHg 83%
    23:00 +17°C° 0 mm 2 mps 624 mmHg 86%

    Tomorrow, 22 January, Tuesday

    Time Temperature Precipitation Wind Pressure Humidity
    00:00 +17°C° 0 mm 2 mps 623 mmHg 85%
    01:00 +17°C° 0 mm 2 mps 623 mmHg 85%
    02:00 +16°C° 0 mm 1 mps 623 mmHg 84%
    03:00 +16°C° 0 mm 1 mps 623 mmHg 82%
    04:00 +16°C° 0 mm 1 mps 623 mmHg 79%
    05:00 +16°C° 0 mm 1 mps 623 mmHg 77%
    06:00 +18°C° 0 mm 2 mps 623 mmHg 70%
    07:00 +20°C° 0 mm 2 mps 624 mmHg 62%
    08:00 +21°C° 0 mm 2 mps 625 mmHg 54%
    09:00 +24°C° 0 mm 2 mps 625 mmHg 50%
    10:00 +25°C° 0 mm 3 mps 625 mmHg 46%
    11:00 +27°C° 0 mm 3 mps 625 mmHg 42%
    12:00 +27°C° 0 mm 3 mps 625 mmHg 41%
    13:00 +28°C° 0 mm 3 mps 624 mmHg 41%
    14:00 +28°C° 0 mm 4 mps 624 mmHg 40%
    15:00 +27°C° 0.1 mm 4 mps 623 mmHg 46%
    16:00 +26°C° 0.1 mm 4 mps 623 mmHg 52%
    17:00 +25°C° 0.1 mm 4 mps 622 mmHg 57%
    18:00 +22°C° 0.4 mm 4 mps 622 mmHg 65%
    19:00 +20°C° 0.4 mm 5 mps 623 mmHg 72%
    20:00 +19°C° 0.4 mm 5 mps 623 mmHg 80%
    21:00 +18°C° 0 mm 4 mps 623 mmHg 81%
    22:00 +17°C° 0 mm 4 mps 623 mmHg 83%
    23:00 +17°C° 0 mm 3 mps 623 mmHg 84%

    Day after tomorrow, 23 January, Wednesday

    Time Temperature Precipitation Wind Pressure Humidity
    00:00 +17°C° 0 mm 3 mps 623 mmHg 85%
    01:00 +16°C° 0 mm 2 mps 622 mmHg 86%
    02:00 +16°C° 0 mm 2 mps 622 mmHg 87%
    03:00 +16°C° 0 mm 2 mps 622 mmHg 85%
    04:00 +16°C° 0 mm 2 mps 622 mmHg 84%
    05:00 +15°C° 0 mm 1 mps 622 mmHg 83%
    06:00 +17°C° 0 mm 2 mps 623 mmHg 72%
    07:00 +20°C° 0 mm 3 mps 624 mmHg 61%
    08:00 +22°C° 0 mm 4 mps 625 mmHg 51%
    09:00 +23°C° 0 mm 4 mps 625 mmHg 47%
    10:00 +26°C° 0 mm 4 mps 625 mmHg 43%
    11:00 +27°C° 0 mm 4 mps 625 mmHg 39%
    12:00 +27°C° 0 mm 5 mps 624 mmHg 38%
    13:00 +28°C° 0 mm 5 mps 624 mmHg 38%
    14:00 +28°C° 0 mm 5 mps 623 mmHg 37%
    15:00 +27°C° 0 mm 5 mps 623 mmHg 44%
    16:00 +26°C° 0 mm 6 mps 622 mmHg 52%
    17:00 +23°C° 0 mm 6 mps 622 mmHg 59%
    18:00 +22°C° 0 mm 6 mps 622 mmHg 67%
    19:00 +20°C° 0 mm 6 mps 623 mmHg 74%
    20:00 +19°C° 0 mm 6 mps 623 mmHg 81%
    21:00 +19°C° 0 mm 5 mps 623 mmHg 82%
    22:00 +17°C° 0 mm 5 mps 624 mmHg 84%
    23:00 +17°C° 0 mm 4 mps 624 mmHg 85%

    24 January, Thursday

    Time Temperature Precipitation Wind Pressure Humidity
    00:00 +17°C° 0 mm 4 mps 623 mmHg 85%
    01:00 +17°C° 0 mm 3 mps 623 mmHg 86%
    02:00 +16°C° 0 mm 2 mps 622 mmHg 87%
    03:00 +16°C° 0 mm 2 mps 622 mmHg 86%
    04:00 +16°C° 0 mm 2 mps 622 mmHg 85%
    05:00 +16°C° 0 mm 2 mps 622 mmHg 85%
    06:00 +17°C° 0 mm 3 mps 623 mmHg 74%
    07:00 +19°C° 0 mm 3 mps 624 mmHg 64%
    08:00 +21°C° 0 mm 4 mps 625 mmHg 53%
    09:00 +22°C° 0 mm 4 mps 625 mmHg 48%
    10:00 +25°C° 0 mm 5 mps 625 mmHg 42%
    11:00 +26°C° 0 mm 5 mps 625 mmHg 37%
    12:00 +27°C° 0 mm 5 mps 625 mmHg 36%
    13:00 +27°C° 0 mm 5 mps 624 mmHg 36%
    14:00 +28°C° 0 mm 5 mps 623 mmHg 35%
    15:00 +27°C° 0 mm 6 mps 623 mmHg 43%
    16:00 +24°C° 0 mm 6 mps 623 mmHg 50%
    17:00 +23°C° 0 mm 6 mps 623 mmHg 58%
    18:00 +21°C° 0 mm 6 mps 623 mmHg 64%
    19:00 +20°C° 0 mm 6 mps 623 mmHg 71%
    20:00 +19°C° 0 mm 6 mps 623 mmHg 77%
    21:00 +17°C° 0 mm 5 mps 623 mmHg 79%
    22:00 +16°C° 0 mm 5 mps 623 mmHg 81%
    23:00 +17°C° 0 mm 4 mps 623 mmHg 82%

    25 January, Friday

    Time Temperature Precipitation Wind Pressure Humidity
    00:00 +15°C° 0 mm 4 mps 623 mmHg 82%
    01:00 +16°C° 0 mm 3 mps 622 mmHg 82%
    02:00 +14°C° 0 mm 3 mps 622 mmHg 83%
    03:00 +15°C° 0 mm 2 mps 622 mmHg 81%
    04:00 +15°C° 0 mm 2 mps 622 mmHg 80%
    05:00 +15°C° 0 mm 2 mps 622 mmHg 78%
    06:00 +17°C° 0 mm 3 mps 624 mmHg 69%
    07:00 +19°C° 0 mm 3 mps 625 mmHg 59%
    08:00 +21°C° 0 mm 4 mps 626 mmHg 50%
    09:00 +22°C° 0 mm 4 mps 626 mmHg 45%
    10:00 +25°C° 0 mm 5 mps 626 mmHg 40%
    11:00 +27°C° 0 mm 5 mps 626 mmHg 35%
    12:00 +27°C° 0 mm 5 mps 625 mmHg 35%
    13:00 +28°C° 0 mm 5 mps 625 mmHg 34%
    14:00 +28°C° 0 mm 5 mps 624 mmHg 33%
    15:00 +27°C° 0 mm 5 mps 624 mmHg 39%
    16:00 +26°C° 0 mm 6 mps 624 mmHg 44%
    17:00 +24°C° 0 mm 6 mps 623 mmHg 49%
    18:00 +22°C° 0 mm 6 mps 624 mmHg 58%
    19:00 +21°C° 0 mm 5 mps 624 mmHg 67%
    20:00 +19°C° 0 mm 5 mps 624 mmHg 76%
    21:00 +17°C° 0 mm 5 mps 624 mmHg 78%
    22:00 +17°C° 0 mm 4 mps 624 mmHg 81%
    23:00 +17°C° 0 mm 4 mps 624 mmHg 83%

    26 January, Saturday

    Time Temperature Precipitation Wind Pressure Humidity
    00:00 +16°C° 0 mm 3 mps 623 mmHg 83%
    01:00 +16°C° 0 mm 3 mps 622 mmHg 83%
    02:00 +15°C° 0 mm 2 mps 622 mmHg 82%
    03:00 +15°C° 0 mm 2 mps 622 mmHg 79%
    04:00 +15°C° 0 mm 2 mps 622 mmHg 76%
    05:00 +14°C° 0 mm 1 mps 622 mmHg 73%
    06:00 +17°C° 0 mm 2 mps 623 mmHg 62%
    07:00 +19°C° 0 mm 3 mps 624 mmHg 52%
    08:00 +22°C° 0 mm 4 mps 626 mmHg 41%
    09:00 +23°C° 0 mm 5 mps 626 mmHg 37%
    10:00 +26°C° 0 mm 5 mps 626 mmHg 33%
    11:00 +28°C° 0 mm 6 mps 626 mmHg 29%
    12:00 +28°C° 0 mm 6 mps 625 mmHg 30%
    13:00 +28°C° 0 mm 6 mps 624 mmHg 31%
    14:00 +29°C° 0 mm 6 mps 624 mmHg 31%
    15:00 +28°C° 0 mm 6 mps 624 mmHg 38%
    16:00 +26°C° 0 mm 6 mps 623 mmHg 44%
    17:00 +24°C° 0 mm 6 mps 623 mmHg 51%
    18:00 +22°C° 0 mm 6 mps 623 mmHg 61%
    19:00 +20°C° 0 mm 6 mps 623 mmHg 72%
    20:00 +19°C° 0 mm 6 mps 623 mmHg 82%
    21:00 +17°C° 0 mm 5 mps 623 mmHg 84%
    22:00 +16°C° 0 mm 5 mps 623 mmHg 86%
    23:00 +16°C° 0 mm 5 mps 623 mmHg 88%
    Show more